Regional Weather Roundup
Issued by NWS

Home | Current Version | Previous Version | Graphics & Text | Print | Product List | Glossary On
Versions: 1 2 3 4 5 6 7 8 9 10 11 12 13 14 15 16 17 18 19 20 21 22 23 24 25 26 27 28 29 30 31 32 33 34 35 36 37 38 39 40 41 42 43 44 45 46 47 48 49 50
000
ASUS45 KSLC 241010
RWRUT

UTAH REGIONAL WEATHER ROUNDUP
NATIONAL WEATHER SERVICE SALT LAKE CITY UT
300 AM MST MON NOV 24 2014

UTZ001>011-023>025-241100-

NORTHERN UTAH

CITY           SKY/WX    TMP DP  RH WIND       PRES   REMARKS
BRIGHAM CITY   CLOUDY    37  24  60 S10       30.18F WCI  29
HILL AFB       CLOUDY    34  23  64 SW10      30.18S WCI  26
LOGAN          CLOUDY    36  22  56 SW9       30.14F WCI  29
OGDEN          CLOUDY    36  23  59 SW10      30.18S WCI  28
PROVO AIRPORT  CLOUDY    32  23  69 N6        30.23R WCI  26
SALT LAKE CITY CLOUDY    36  23  59 S13       30.19R WCI  27
VERNAL         MOCLDY    23  14  68 W5        30.07S WCI  17
WENDOVER       PTCLDY    36  16  44 NW9       30.22R WCI  29
HEBER CITY     CLOUDY    28  25  86 CALM      30.16S
WEST JORDAN    CLOUDY    34  27  75 S15       30.20S WCI  24

$$

UTZ012>022-026-027-241100-

SOUTHERN/CENTRAL UTAH

CITY           SKY/WX    TMP DP  RH WIND       PRES   REMARKS
BLANDING       CLEAR     19   9  65 N6        30.22S WCI  11
BRYCE CANYON   PTCLDY    20   7  57 NW12      30.21R WCI   8
CEDAR CITY     CLEAR     17  11  77 VRB3      30.25S
DELTA          PTCLDY    22  18  83 SW8       30.24R WCI  13
MILFORD        CLEAR     20  14  77 S12       30.26S WCI   8
MOAB/CYNLANDS  CLEAR     29  12  49 S8        30.14F WCI  21
PRICE          MOCLDY    31  13  47 W9        30.11R WCI  23
ST GEORGE      CLOUDY    34   7  32 S5        30.29R WCI  30
KANAB          CLEAR     19   3  49 N3        30.29R

$$

REGIONAL REPORTS     COLORADO/ARIZONA

CITY           SKY/WX    TMP DP  RH WIND       PRES   REMARKS
CRAIG, CO      CLOUDY    22  15  75 N5        30.05R WCI  16
GRAND JUNCTION CLOUDY    24  15  68 SE3       30.14R
RIFLE          CLOUDY    20  14  77 NE5       30.12F WCI  13
MONTROSE       PTCLDY    18  12  77 SE7       30.17R WCI   9
CORTEZ         CLEAR     15  11  83 E5        30.17R WCI   8
PAGE, AZ       NOT AVBL
GRAND CANYON   PTCLDY     9  -6  50 CALM      30.23F
KINGMAN        CLEAR     27   6  41 CALM      30.25S
FLAGSTAFF      PTCLDY    13  -4  46 NE5       30.20S WCI   5

$$

REGIONAL REPORTS    NEVADA/IDAHO/WYOMING

CITY           SKY/WX    TMP DP  RH WIND       PRES   REMARKS
LAS VEGAS, NV  PTCLDY    44   8  23 S8        30.22F
ELY            CLEAR     13  32 100 S12       30.28S WCI  -1
ELKO           PTCLDY    25  21  85 CALM      30.31R
POCATELLO, ID  CLEAR     30  27  88 SW17      30.13R WCI  18
BURLEY         PTCLDY    33  24  69 W20       30.17R WCI  21
EVANSTON, WY   LGT SNOW  22  20  92 SW21      30.07S FOG     WCI   6
ROCK SPRINGS   LGT SNOW  22  19  89 W20       30.00F FOG     WCI   7

$$


USA.gov is the U.S. government's official web portal to all federal, state and local government web resources and services.